sat.trackr.live / text

‹ back to catalog

STARLINK-37185

NORAD 68340 · 2026-059V

PAYLOAD ACTIVE UNKNOWN

§ Identity

Operator
Country
US
Launch date
2026-03-22
Launch site
AFETR
Launch vehicle
Mass (kg)
RCS (m²)

Purposes: comms

External: N2YO · Heavens-Above · Gunter

§ Orbital elements

Epoch: 2026-05-25T00:00:02.000160Z

Period
93.79 min
Inclination
53.1592°
Eccentricity
0.0000951
Mean motion
15.35369227 rev/d
Perigee alt
459.2 km
Apogee alt
460.5 km
Semi-major
6,838.0 km
B*
1.9557e-3
RAAN
349.7800°
Arg perigee
84.7574°
Mean anomaly
346.5556°
Rev number
594

§ Raw data

STARLINK-371851 68340U 26059V   26145.00002315  .00068391  00000+0  19557-2 0  99972 68340  53.1592 349.7800 0000951  84.7574 346.5556 15.35369227  5944

JSON: /api/v1/satellites/68340 · /tle

For live sub-satellite position, see the globe view (requires WebGL).

§ Visibility from observer

Set your observer location to see the next 7 days of passes ≥ 10°. The values pass through the URL so the page stays shareable.

No JS? Fill the form by hand. The geolocation button needs JavaScript.